RH
96 77 40 25 19 20 18 11 6 6 7 12 33 46 64 96 100 88 79 75 93 100 100 100 100 100 89 95 100 100 100 100 100 100 100 92 98 99 100 100 100 87 87
68 28 23 16 15 11 8 8 6 5 7 21 41 56 67 88 93 83 70 86 100 100 100 100 100 100 100 100 100 100 100 100 100 100 100 100 92 100 100 100 100 100 100
24 22 12 13 12 10 9 8 6 6 30 85 90 98 91 95 86 84 92 84 97 100 100 100 100 100 100 100 84 99 100 100 92 87 100 100 100 100 100 100 100 100 100
23 10 10 15 12 12 11 8 5 8 59 93 71 89 91 91 74 88 88 79 99 93 100 100 100 100 100 100 78 100 100 100 100 100 100 100 100 100 100 100 100 100 100
9 9 11 14 14 18 15 14 16 8 34 63 100 100 93 84 71 96 100 100 100 100 100 100 100 100 100 100 82 91 100 100 100 100 100 100 100 100 100 100 100 100 100
7 8 10 16 25 18 21 23 40 30 30 38 92 95 100 96 82 100 100 100 100 98 100 100 100 100 100 100 100 100 100 100 100 100 100 100 100 100 100 100 100 100 100
5 6 9 14 30 25 44 55 62 40 54 76 97 94 89 100 100 100 100 100 100 100 100 100 100 100 100 98 100 100 100 100 100 100 100 100 100 94 100 100 100 100 100
5 7 10 23 53 51 77 72 80 86 92 76 68 64 69 100 100 100 100 100 100 100 100 100 86 100 100 100 100 100 98 100 100 100 96 94 100 95 100 100 100 100 100
8 11 26 39 45 71 94 95 99 88 98 100 100 100 100 86 100 100 100 100 100 100 100 100 100 100 100 100 100 100 100 100 100 100 95 96 98 100 87 96 100 83 77
11 19 34 41 51 90 99 100 100 100 100 100 100 100 100 100 100 100 100 100 100 100 100 100 100 100 100 100 100 99 99 100 100 93 100 98 100 100 100 100 87 84 87
13 35 55 55 79 77 99 100 99 99 100 100 100 100 100 100 100 100 100 100 100 100 100 100 100 100 95 74 76 92 93 88 86 98 100 100 100 100 100 97 62 62 54
13 59 68 60 73 76 91 100 100 98 99 100 100 100 100 100 100 100 100 100 100 100 100 100 100 86 73 66 78 61 65 86 100 100 100 100 100 100 82 56 45 58 62
17 36 75 91 100 100 79 100 100 94 96 100 100 100 100 100 100 100 100 100 100 92 80 88 97 96 99 100 100 97 92 89 100 100 100 80 74 66 57 49 51 55 49
15 48 93 100 100 100 88 100 99 100 100 100 100 84 100 100 100 100 100 98 98 100 100 82 74 89 98 89 100 100 100 100 100 100 99 95 84 77 64 67 60 46 51
19 49 93 100 100 100 100 93 92 98 100 100 100 88 83 83 94 99 94 93 82 90 90 88 92 97 100 100 100 100 100 100 99 99 88 75 59 64 67 67 56 57 74
31 59 100 100 100 100 100 100 100 91 85 89 95 99 100 84 89 81 82 77 70 75 87 100 100 94 76 90 97 100 100 96 71 58 67 56 67 73 75 62 80 92 86
17 85 100 100 100 100 100 100 100 100 96 65 68 85 100 86 72 100 99 81 96 82 100 100 100 100 100 100 100 100 83 94 89 80 83 80 78 81 98 92 78 83 84
18 84 100 100 100 100 100 100 100 100 100 100 100 97 99 91 80 82 100 100 100 100 100 100 100 100 100 99 94 100 97 78 76 97 99 90 93 96 77 75 53 59 74
21 38 89 100 100 100 100 100 100 100 100 100 100 100 100 100 100 100 100 100 100 100 100 100 100 100 100 100 100 97 100 100 100 100 96 82 67 75 52 46 46 61 66
19 24 45 93 100 100 100 100 100 100 100 100 100 100 100 100 100 100 100 100 100 100 100 100 100 89 96 99 98 100 100 87 91 85 84 73 53 44 51 58 66 76 80
27 28 29 58 88 90 98 100 100 100 100 83 86 94 100 100 98 85 87 96 100 100 100 100 100 100 90 80 89 88 96 80 57 56 52 46 46 58 63 69 68 74 80
46 44 27 32 57 79 84 82 96 98 98 96 84 72 55 53 66 73 80 79 76 76 79 88 83 68 80 85 85 76 70 51 45 48 53 59 62 64 65 71 75 74 68
41 44 47 45 36 41 39 41 54 54 50 51 51 51 48 44 45 51 66 55 50 63 74 70 72 62 59 54 49 44 44 45 54 61 66 68 70 70 68 65 61 59 57
31 36 42 45 47 48 52 55 56 51 49 51 55 60 50 50 65 76 81 67 54 50 51 43 39 37 40 46 54 53 50 48 48 49 48 49 49 50 52 58 58 55 47
31 30 29 32 38 41 41 40 40 42 45 45 40 37 37 38 38 41 47 49 47 47 51 42 36 35 36 36 36 36 37 37 37 41 46 51 53 46 38 36 33 30 27
22 20 21 26 29 30 30 31 30 30 30 30 28 28 30 29 28 25 24 26 29 34 35 32 32 32 30 28 28 29 32 33 33 34 35 35 33 30 26 23 23 23 24
Wind_Speed
150 156 144 120 94 85 86 80 70 72 75 86 83 89 87 93 87 82 82 59 61 64 58 62 65 62 62 63 66 65 63 62 62 69 71 69 65 69 73 78 81 76 77
153 132 110 97 77 71 70 67 57 54 58 64 68 84 94 85 80 73 71 60 59 57 58 61 66 65 54 63 70 66 63 57 60 64 73 73 72 69 77 76 77 76 78
118 111 89 74 66 62 63 57 44 46 47 30 61 59 73 81 78 67 55 47 54 54 54 63 58 60 67 71 77 74 72 69 72 71 69 70 69 73 76 74 74 78 80
107 87 74 66 59 56 51 48 37 39 48 64 73 66 72 67 63 67 61 53 52 52 37 62 67 65 74 74 67 72 74 75 76 71 75 77 78 77 76 74 77 83 77
83 74 66 59 51 50 45 40 35 38 54 59 47 54 55 50 46 45 50 54 62 54 46 61 68 76 78 82 79 80 84 86 80 83 78 81 78 71 73 76 81 84 83
68 64 59 53 44 47 40 31 29 30 27 36 57 55 48 42 41 47 59 65 66 55 42 59 74 80 77 83 74 73 71 70 71 74 76 78 84 77 74 78 84 87 85
61 53 49 46 42 38 20 17 18 20 20 27 38 40 30 35 46 57 66 67 64 53 44 54 66 75 76 77 82 80 83 84 80 81 77 81 79 81 79 80 83 88 93
52 45 43 36 43 30 20 15 16 22 25 21 21 22 23 30 43 55 62 61 52 61 56 64 67 71 75 75 76 85 87 81 78 78 80 83 82 82 78 80 86 91 97
44 41 37 41 39 36 29 23 25 26 28 26 20 16 9 32 39 52 54 48 48 61 65 69 70 74 75 76 82 85 82 85 82 82 78 82 80 79 83 87 91 96 104
41 38 44 45 42 41 38 34 31 32 32 34 26 25 22 26 33 46 54 50 56 59 64 62 68 67 73 78 75 77 77 79 76 76 74 78 80 81 85 91 96 101 103
38 47 51 52 48 49 47 40 40 36 40 38 31 32 36 38 35 41 49 54 63 68 66 68 70 72 72 75 77 74 71 71 72 70 72 78 83 88 88 93 101 102 106
40 53 54 49 48 53 52 48 41 41 49 45 42 45 41 52 58 61 59 68 72 71 69 71 76 77 78 78 78 78 76 73 74 75 79 84 87 92 97 101 105 103 105
40 55 57 50 46 58 57 53 45 47 47 49 52 54 52 53 56 66 66 65 73 76 77 75 74 74 71 70 71 74 77 78 78 81 88 93 96 102 104 105 107 106 110
42 57 61 54 52 66 56 53 55 52 58 55 54 61 57 61 62 63 66 72 70 71 75 79 81 80 77 79 76 75 77 83 86 92 95 103 105 107 109 110 114 116 116
43 58 66 62 60 70 68 64 63 61 60 61 59 63 63 67 69 68 70 72 72 75 73 74 74 73 77 78 81 86 90 93 93 98 102 106 110 111 112 115 117 114 116
48 61 71 69 66 70 71 69 66 70 68 70 68 70 68 69 64 69 75 73 69 70 74 76 78 81 81 83 86 91 96 100 101 104 106 109 112 113 115 119 118 122 122
45 69 77 76 69 71 75 77 75 75 74 76 76 76 77 76 72 74 76 75 75 74 80 85 84 85 84 88 90 96 99 104 109 111 114 118 119 120 119 122 127 125 114
45 71 79 80 82 80 81 82 83 83 78 80 80 80 83 82 79 81 82 80 81 83 88 90 92 91 93 97 98 103 111 113 113 114 116 120 123 126 129 132 108 99 97
47 60 77 88 87 87 88 88 84 83 78 81 84 85 85 84 86 88 87 88 90 94 95 96 97 99 101 101 105 110 112 116 118 122 125 128 128 130 117 102 92 88 85
45 56 67 86 94 94 94 93 94 95 94 94 94 95 93 91 90 91 96 97 98 97 102 105 105 107 111 114 117 118 123 123 126 131 133 127 113 103 91 84 82 81 82
42 51 62 77 94 98 100 101 100 100 102 104 102 102 105 105 104 104 106 107 108 109 110 110 114 115 117 118 122 124 131 132 116 108 104 98 90 84 80 78 77 78 80
42 49 54 68 83 96 99 101 104 106 106 107 108 109 107 107 113 114 114 113 115 117 122 121 117 118 122 123 115 113 111 106 100 91 86 83 81 78 76 78 80 82 83
43 47 50 54 62 77 85 86 92 96 99 101 102 102 99 91 87 92 99 95 85 93 94 93 95 96 97 98 100 93 89 84 80 77 76 76 78 80 81 82 83 84 86
38 38 42 47 51 56 62 71 82 85 87 90 95 97 91 89 99 101 102 92 85 82 83 85 84 84 81 79 78 78 78 78 77 77 77 77 79 80 82 84 86 86 86
42 40 35 37 42 47 50 54 59 65 70 73 75 75 74 77 78 76 75 76 74 75 79 79 77 76 75 76 75 75 74 75 75 76 77 79 80 81 81 81 81 80 80
41 38 36 38 42 44 46 50 53 55 57 60 61 62 64 65 66 66 66 67 69 71 74 75 75 75 74 72 71 70 71 72 73 74 75 76 76 77 78 77 77 78 78
Wind_Direction
299 297 299 296 289 282 279 279 275 267 259 253 252 256 258 258 261 262 264 267 266 258 247 236 236 246 251 257 258 255 264 263 266 273 276 279 280 278 280 281 287 296 295
298 301 299 293 285 282 285 285 279 269 257 245 249 253 253 255 257 255 259 264 244 244 242 230 238 246 252 260 258 251 259 263 266 267 270 273 278 277 277 283 287 293 296
303 302 298 292 291 292 289 282 276 257 243 242 255 256 254 252 253 252 252 239 233 234 239 230 231 249 249 258 259 258 258 262 261 266 268 274 278 279 279 284 288 293 292
303 298 295 291 291 290 283 281 269 243 212 217 236 245 253 252 252 250 245 240 232 222 241 238 235 242 254 254 257 255 259 257 262 266 265 267 272 276 277 282 286 289 289
298 295 290 285 285 278 271 271 267 242 229 231 231 244 248 247 245 229 212 208 215 214 214 238 247 246 254 254 257 260 258 260 263 266 267 267 270 277 279 282 283 284 284
294 289 282 276 266 266 273 264 254 250 230 220 223 235 241 229 210 208 202 204 205 216 228 237 243 243 249 250 256 258 258 261 263 265 266 268 269 273 276 278 280 283 281
292 282 271 266 251 258 249 224 225 227 218 208 211 210 210 219 209 204 204 203 206 208 234 238 240 245 248 250 252 254 256 263 266 265 269 267 267 268 271 277 279 280 280
286 273 262 244 235 229 185 185 199 174 174 179 180 208 217 209 206 202 204 208 216 222 230 242 242 242 248 253 256 256 259 267 267 266 266 267 268 272 273 278 278 280 282
274 261 235 222 216 196 188 172 172 171 166 157 161 161 198 200 205 201 208 212 214 235 239 248 248 246 252 256 256 259 263 265 268 269 270 270 269 272 273 276 278 279 280
256 239 225 213 201 192 191 186 194 188 194 179 205 210 212 198 199 210 209 223 231 241 240 245 248 252 253 254 259 263 268 267 268 270 266 269 272 275 273 275 276 280 285
244 222 218 209 207 200 202 205 203 204 200 199 196 205 214 206 211 226 232 237 239 238 240 245 251 252 255 258 263 267 269 270 270 271 269 271 272 272 276 278 280 285 289
237 216 217 213 211 210 207 204 208 203 201 205 204 209 208 214 219 226 227 234 237 242 246 248 252 255 257 262 265 266 266 265 267 269 268 269 272 275 277 282 285 290 292
233 220 213 209 215 210 209 205 205 204 211 220 215 212 209 212 219 223 231 237 240 241 246 252 256 257 259 257 258 262 264 267 270 270 271 273 276 278 282 284 287 290 292
227 215 209 203 214 214 211 212 212 209 212 218 223 221 221 217 224 233 236 239 248 251 252 253 257 257 255 256 262 265 264 265 267 269 275 277 280 282 283 286 286 291 293
221 214 205 203 214 215 218 220 220 222 224 222 220 224 230 234 232 238 244 246 251 251 253 254 256 259 259 261 261 264 268 270 272 274 276 279 281 283 287 286 289 293 292
216 211 204 207 215 220 225 228 231 229 232 233 232 233 237 238 243 240 244 247 252 251 253 255 258 263 265 263 263 264 269 270 272 275 277 280 282 283 285 290 291 293 296
213 207 206 211 215 224 228 231 232 229 234 236 235 240 238 242 246 242 246 251 254 253 251 254 258 260 262 263 262 264 270 272 273 276 278 281 284 286 289 291 295 294 291
214 208 208 211 216 222 226 231 230 230 230 232 237 238 238 242 249 247 245 249 251 248 252 254 254 257 260 261 263 265 269 273 276 276 278 280 284 286 289 290 289 289 286
221 214 214 215 218 224 229 231 234 233 233 234 237 237 241 244 247 246 245 249 250 252 254 257 258 260 261 264 265 269 272 273 276 278 281 283 285 286 288 287 285 284 284
225 221 219 218 223 226 231 236 238 236 236 236 238 238 240 243 245 247 249 251 255 256 258 259 261 265 266 268 268 270 273 276 278 278 280 284 285 284 282 282 282 281 282
236 227 226 222 223 228 232 235 239 242 242 241 240 242 242 245 247 250 255 257 258 260 263 264 263 265 268 271 274 275 275 282 282 282 282 282 279 278 278 279 281 281 282
240 241 238 231 228 229 233 236 239 243 246 248 249 252 252 255 254 255 257 259 260 263 264 265 269 273 272 273 274 275 275 277 279 278 277 276 276 278 279 279 279 280 282
245 244 245 245 244 242 241 242 244 247 249 252 255 257 259 265 268 270 268 270 269 270 273 269 268 268 269 270 271 274 275 275 275 274 275 275 276 277 278 280 281 282 284
259 254 253 251 251 251 250 251 253 255 257 258 260 261 264 266 270 271 271 270 268 267 268 267 268 269 270 272 273 272 271 272 274 275 276 278 279 280 282 282 281 282 282
271 271 265 253 251 252 252 252 252 251 251 252 252 256 259 261 261 261 262 265 265 267 271 272 273 274 275 275 274 274 275 277 279 280 280 281 281 280 280 280 281 282 283
272 274 271 266 263 262 260 257 257 258 259 260 261 261 261 263 265 267 268 268 269 270 270 272 273 273 274 276 277 278 278 278 279 279 280 281 281 281 281 282 283 284 285